When you browse on this site, cookies collect data to enhance your experience and personalize the content and advertising you see.
Visit our Privacy Policy to learn more. By continuing to use the site, you agree to this use of cookies and data.
  • In Germany
  • List of Countries
  • For 7 days
  • Water Temperature
  • Weather Map
  • Weather Widgets
  • user-avatar
    Login

    Hourly Weather Tokareva

    Today, 26 February, Wednesday

    Time Temperature Precipitation Wind Pressure Humidity
    00:00 -10°C° 0 mm 4 mps 735 mmHg 94%
    01:00 -12°C° 0 mm 5 mps 734 mmHg 94%
    02:00 -10°C° 0 mm 4 mps 734 mmHg 94%
    03:00 -10°C° 0 mm 4 mps 733 mmHg 94%
    04:00 -10°C° 0 mm 4 mps 733 mmHg 93%
    05:00 -10°C° 0 mm 4 mps 732 mmHg 94%
    06:00 -10°C° 0 mm 4 mps 731 mmHg 94%
    07:00 -9°C° 0 mm 3 mps 730 mmHg 94%
    08:00 -9°C° 0.1 mm 3 mps 729 mmHg 93%
    09:00 -9°C° 0.1 mm 3 mps 729 mmHg 93%
    10:00 -8°C° 0.1 mm 3 mps 728 mmHg 92%
    11:00 -7°C° 0.5 mm 3 mps 727 mmHg 93%
    12:00 -7°C° 0.5 mm 3 mps 726 mmHg 93%
    13:00 -6°C° 0.5 mm 3 mps 725 mmHg 94%
    14:00 -6°C° 1 mm 3 mps 725 mmHg 94%
    15:00 -5°C° 1 mm 3 mps 724 mmHg 95%
    16:00 -4°C° 1 mm 2 mps 724 mmHg 95%
    17:00 -5°C° 0.6 mm 2 mps 724 mmHg 95%
    18:00 -5°C° 0.6 mm 2 mps 724 mmHg 96%
    19:00 -5°C° 0.6 mm 2 mps 723 mmHg 96%
    20:00 -6°C° 0.4 mm 3 mps 724 mmHg 96%
    21:00 -6°C° 0.4 mm 3 mps 724 mmHg 95%
    22:00 -6°C° 0.4 mm 3 mps 724 mmHg 95%
    23:00 -7°C° 0.5 mm 4 mps 725 mmHg 94%

    Tomorrow, 27 February, Thursday

    Time Temperature Precipitation Wind Pressure Humidity
    00:00 -7°C° 0.5 mm 5 mps 725 mmHg 94%
    01:00 -8°C° 0.5 mm 6 mps 726 mmHg 93%
    02:00 -6°C° 0.2 mm 6 mps 727 mmHg 91%
    03:00 -6°C° 0.2 mm 6 mps 728 mmHg 89%
    04:00 -5°C° 0.2 mm 6 mps 729 mmHg 87%
    05:00 -6°C° 0 mm 6 mps 730 mmHg 87%
    06:00 -8°C° 0 mm 6 mps 731 mmHg 86%
    07:00 -9°C° 0 mm 6 mps 732 mmHg 85%
    08:00 -9°C° 0 mm 6 mps 733 mmHg 82%
    09:00 -9°C° 0 mm 6 mps 734 mmHg 80%
    10:00 -8°C° 0 mm 6 mps 734 mmHg 77%
    11:00 -6°C° 0 mm 5 mps 735 mmHg 74%
    12:00 -5°C° 0 mm 5 mps 735 mmHg 71%
    13:00 -3°C° 0 mm 4 mps 736 mmHg 67%
    14:00 -3°C° 0 mm 4 mps 736 mmHg 72%
    15:00 -2°C° 0 mm 3 mps 736 mmHg 77%
    16:00 -2°C° 0 mm 3 mps 736 mmHg 81%
    17:00 -2°C° 0 mm 3 mps 737 mmHg 83%
    18:00 -2°C° 0 mm 3 mps 737 mmHg 85%
    19:00 -2°C° 0 mm 3 mps 737 mmHg 87%
    20:00 -4°C° 0 mm 3 mps 738 mmHg 88%
    21:00 -4°C° 0 mm 3 mps 738 mmHg 89%
    22:00 -4°C° 0 mm 3 mps 738 mmHg 90%
    23:00 -4°C° 0 mm 3 mps 738 mmHg 92%

    Day after tomorrow, 28 February, Friday

    Time Temperature Precipitation Wind Pressure Humidity
    00:00 -4°C° 0 mm 3 mps 738 mmHg 93%
    01:00 -4°C° 0 mm 3 mps 739 mmHg 94%
    02:00 -4°C° 0 mm 3 mps 739 mmHg 92%
    03:00 -2°C° 0 mm 3 mps 739 mmHg 90%
    04:00 -3°C° 0 mm 4 mps 739 mmHg 88%
    05:00 -2°C° 0 mm 3 mps 739 mmHg 89%
    06:00 -2°C° 0 mm 3 mps 739 mmHg 89%
    07:00 -2°C° 0 mm 3 mps 739 mmHg 90%
    08:00 -1°C° 0.1 mm 3 mps 739 mmHg 89%
    09:00 -1°C° 0.1 mm 4 mps 739 mmHg 89%
    10:00 -1°C° 0.1 mm 4 mps 739 mmHg 89%
    11:00 0°C° 0 mm 4 mps 740 mmHg 89%
    12:00 0°C° 0 mm 4 mps 740 mmHg 90%
    13:00 +1°C° 0 mm 3 mps 740 mmHg 90%
    14:00 +1°C° 0 mm 3 mps 740 mmHg 90%
    15:00 +1°C° 0 mm 3 mps 740 mmHg 91%
    16:00 +2°C° 0 mm 2 mps 740 mmHg 91%
    17:00 0°C° 0 mm 3 mps 741 mmHg 90%
    18:00 0°C° 0 mm 3 mps 741 mmHg 89%
    19:00 -1°C° 0 mm 3 mps 741 mmHg 88%
    20:00 -1°C° 0 mm 3 mps 742 mmHg 88%
    21:00 -1°C° 0 mm 2 mps 742 mmHg 88%
    22:00 -2°C° 0 mm 2 mps 742 mmHg 88%
    23:00 -2°C° 0 mm 2 mps 742 mmHg 89%

    29 February, Saturday

    Time Temperature Precipitation Wind Pressure Humidity
    00:00 -2°C° 0 mm 2 mps 742 mmHg 89%
    01:00 -2°C° 0 mm 2 mps 742 mmHg 90%
    02:00 -2°C° 0 mm 2 mps 742 mmHg 90%
    03:00 -1°C° 0 mm 2 mps 742 mmHg 90%
    04:00 -1°C° 0 mm 2 mps 742 mmHg 90%
    05:00 -2°C° 0 mm 2 mps 742 mmHg 90%
    06:00 -4°C° 0 mm 3 mps 741 mmHg 89%
    07:00 -5°C° 0 mm 3 mps 741 mmHg 89%
    08:00 -4°C° 0 mm 4 mps 741 mmHg 83%
    09:00 -4°C° 0 mm 5 mps 740 mmHg 76%
    10:00 -2°C° 0 mm 5 mps 740 mmHg 70%
    11:00 -3°C° 0 mm 6 mps 740 mmHg 69%
    12:00 -2°C° 0 mm 6 mps 740 mmHg 67%
    13:00 -2°C° 0 mm 6 mps 739 mmHg 66%
    14:00 -3°C° 0 mm 6 mps 739 mmHg 69%
    15:00 -4°C° 0 mm 6 mps 738 mmHg 72%
    16:00 -4°C° 0 mm 6 mps 738 mmHg 75%
    17:00 -5°C° 0 mm 6 mps 738 mmHg 78%
    18:00 -6°C° 0 mm 6 mps 737 mmHg 82%
    19:00 -6°C° 0 mm 5 mps 737 mmHg 85%
    20:00 -7°C° 0 mm 5 mps 737 mmHg 86%
    21:00 -7°C° 0 mm 4 mps 737 mmHg 87%
    22:00 -7°C° 0 mm 4 mps 737 mmHg 88%
    23:00 -7°C° 0 mm 3 mps 737 mmHg 90%

    1 March, Sunday

    Time Temperature Precipitation Wind Pressure Humidity
    00:00 -8°C° 0 mm 3 mps 737 mmHg 91%
    01:00 -7°C° 0 mm 2 mps 738 mmHg 92%
    02:00 -7°C° 0 mm 2 mps 738 mmHg 91%
    03:00 -7°C° 0 mm 2 mps 738 mmHg 91%
    04:00 -8°C° 0 mm 2 mps 738 mmHg 90%
    05:00 -8°C° 0 mm 2 mps 739 mmHg 91%
    06:00 -8°C° 0 mm 2 mps 739 mmHg 92%
    07:00 -8°C° 0 mm 2 mps 739 mmHg 92%
    08:00 -6°C° 0 mm 2 mps 740 mmHg 90%
    09:00 -4°C° 0 mm 2 mps 740 mmHg 89%
    10:00 -2°C° 0 mm 2 mps 740 mmHg 87%
    11:00 -2°C° 0 mm 2 mps 741 mmHg 87%
    12:00 -1°C° 0 mm 2 mps 741 mmHg 86%
    13:00 +1°C° 0 mm 2 mps 741 mmHg 86%
    14:00 +1°C° 0 mm 2 mps 741 mmHg 86%
    15:00 +1°C° 0 mm 1 mps 741 mmHg 86%
    16:00 +1°C° 0 mm 1 mps 741 mmHg 87%
    17:00 +1°C° 0 mm 1 mps 742 mmHg 88%
    18:00 0°C° 0 mm 1 mps 742 mmHg 90%
    19:00 0°C° 0 mm 1 mps 742 mmHg 92%
    20:00 -1°C° 0 mm 1 mps 742 mmHg 92%
    21:00 -1°C° 0 mm 1 mps 742 mmHg 93%
    22:00 -2°C° 0 mm 1 mps 743 mmHg 93%
    23:00 -2°C° 0 mm 1 mps 743 mmHg 94%

    2 March, Monday

    Time Temperature Precipitation Wind Pressure Humidity
    00:00 -3°C° 0 mm 1 mps 743 mmHg 94%
    01:00 -3°C° 0 mm 1 mps 743 mmHg 94%
    02:00 -4°C° 0 mm 1 mps 743 mmHg 94%
    03:00 -4°C° 0 mm 1 mps 743 mmHg 94%
    04:00 -7°C° 0 mm 2 mps 743 mmHg 94%
    05:00 -6°C° 0 mm 1 mps 744 mmHg 94%
    06:00 -7°C° 0 mm 1 mps 744 mmHg 94%
    07:00 -7°C° 0 mm 1 mps 744 mmHg 94%
    08:00 -6°C° 0 mm 1 mps 744 mmHg 91%
    09:00 -3°C° 0 mm 1 mps 745 mmHg 88%
    10:00 -1°C° 0 mm 1 mps 745 mmHg 85%
    11:00 -1°C° 0 mm 1 mps 745 mmHg 84%
    12:00 0°C° 0 mm 1 mps 745 mmHg 82%
    13:00 +1°C° 0 mm 1 mps 745 mmHg 80%
    14:00 +1°C° 0 mm 1 mps 745 mmHg 82%
    15:00 +1°C° 0 mm 1 mps 745 mmHg 83%
    16:00 +1°C° 0 mm 1 mps 745 mmHg 85%
    17:00 0°C° 0 mm 1 mps 746 mmHg 86%
    18:00 -3°C° 0 mm 0 mps 746 mmHg 87%
    19:00 -4°C° 0 mm 0 mps 746 mmHg 89%
    20:00 -4°C° 0 mm 0 mps 746 mmHg 89%
    21:00 -5°C° 0 mm 0 mps 746 mmHg 89%
    22:00 -5°C° 0 mm 0 mps 747 mmHg 90%
    23:00 -6°C° 0 mm 0 mps 747 mmHg 90%
    Show more